Location: Unspecified
(0.0000°N, 0.0000°E)
Time: 03:04:11
(UTC+00:00)

ISS - All Passes

Search period start: 20 June 2019 00:00
Search period end: 30 June 2019 00:00
Orbit: 407 x 418 km, 51.6° (Epoch: 20 June)

Date Brightness Start Highest point End Pass type
(mag) Time Alt. Az. Time Alt. Az. Time Alt. Az.
20 Jun - 04:39:33 10° S 04:42:28 28° SE 04:45:21 10° ENE visible
20 Jun - 16:15:15 10° N 16:17:39 18° NE 16:20:03 10° E daylight
20 Jun - 17:52:22 10° W 17:54:07 14° SW 17:55:53 10° SSW daylight
21 Jun - 03:51:33 10° SSE 03:52:59 12° SE 03:54:26 10° E visible
21 Jun - 05:26:56 10° WSW 05:29:27 20° NW 05:31:57 10° N visible
21 Jun - 17:01:39 10° WNW 17:04:38 31° SW 17:07:38 10° S daylight
22 Jun - 04:36:46 10° SW 04:39:59 50° NW 04:43:12 10° NNE visible
22 Jun - 16:11:50 10° NW 16:15:09 86° SW 16:18:30 10° SE daylight
23 Jun - 03:47:15 10° SSW 03:50:30 56° SE 03:53:45 10° NE visible
23 Jun - 15:22:38 10° NNW 15:25:40 33° NE 15:28:44 10° ESE daylight
24 Jun - 02:58:22 10° S 03:01:01 22° SE 03:03:38 10° ENE visible
24 Jun - 04:36:24 10° WNW 04:37:29 11° NW 04:38:33 10° NW visible
24 Jun - 14:34:16 10° NNE 14:36:10 14° NE 14:38:04 10° E daylight
24 Jun - 16:10:21 10° W 16:12:37 17° SW 16:14:55 10° S daylight
25 Jun - 03:45:08 10° WSW 03:47:57 26° NW 03:50:46 10° N visible
25 Jun - 15:19:58 10° NW 15:23:06 41° SW 15:26:17 10° SSE daylight
26 Jun - 02:55:08 10° SW 02:58:27 70° NW 03:01:44 10° NNE night (unlit)
26 Jun - 14:30:19 10° NNW 14:33:35 69° NE 14:36:54 10° SE daylight
27 Jun - 02:05:45 10° SSW 02:08:56 41° SE 02:12:04 10° NE night (unlit)
27 Jun - 13:41:15 10° N 13:44:04 25° NE 13:46:53 10° ESE daylight
28 Jun - 01:17:06 10° S 01:19:22 17° SE 01:21:38 10° E night (unlit)
28 Jun - 02:53:54 10° W 02:55:50 15° NW 02:57:45 10° NNW night (unlit)
28 Jun - 12:53:29 10° NE 12:54:30 11° NE 12:55:31 10° ENE daylight
28 Jun - 14:28:19 10° WNW 14:30:58 22° SW 14:33:37 10° S daylight
29 Jun - 02:03:13 10° WSW 02:06:16 34° NW 02:09:19 10° NNE night (unlit)
29 Jun - 13:38:09 10° NW 13:41:24 57° SW 13:44:40 10° SSE daylight
